Other Public Products
Issued by NWS Grand Forks, ND

Home | Current Version | Previous Version | Text Only | Print | Product List | Glossary On
Versions: 1 2 3 4 5 6 7 8 9 10 11 12 13 14 15 16 17 18 19 20 21 22 23 24 25 26 27 28 29 30 31 32 33 34 35 36 37 38 39 40 41 42 43 44 45 46 47 48 49 50
248
FPUS83 KFGF 101331
OPUFGF
PRAIRIE TO PINES WEATHER ROUNDUP
NATIONAL WEATHER SERVICE EASTERN NORTH DAKOTA/GRAND FORKS ND
700 AM CST SAT DEC 10 2016

 **SATELLITE DATA USED TO AUGMENT SKY COVER AT AUTOMATED STATIONS**
 *****  WEATHER ACROSS EASTERN NORTH DAKOTA  *****

CITY           SKY/WX    TMP DP  RH WIND       PRES   REMARKS
GRAND FORKS    CLOUDY    -5 -11  75 NW3       30.51F
GRAND FORKS AF CLOUDY   -13 -19  75 W3        30.50F
GRAND CITY NWS NOT AVBL
BUXTON           N/A     28  26  90 W2          N/A
DEVILS LAKE    FLURRIES -17 -21  82 CALM      30.41F
FARGO          CLOUDY    -5 -11  75 CALM      30.49F
WAHPETON ARPT  CLOUDY    -8 -13  77 CALM      30.50F
$$

 *****  WEATHER ACROSS CENTRAL AND WESTERN NORTH DAKOTA  *****

CITY           SKY/WX    TMP DP  RH WIND       PRES   REMARKS
JAMESTOWN      CLOUDY   -14 -19  79 CALM      30.40F
BISMARCK       CLOUDY   -16 -20  82 E7        30.36F FOG     WCI -32
MINOT          CLOUDY   -20 -24  82 S3        30.33F
MINOT AFB      CLOUDY   -24 -30  75 S3        30.33F
GARRISON         N/A    -12 -15  86 E6        30.30F WCI -26
WILLISTON      CLOUDY   -10 -16  74 NE7       30.24F WCI -25
DICKINSON      CLOUDY    -7 -12  79 SE10      30.13F WCI -25
HETTINGER      CLOUDY    -6 -10  83 SE12      30.16F FOG     WCI -25
$$

 *****  OTHER OBSERVATIONS NORTHEAST NORTH DAKOTA  *****

CITY           SKY/WX    TMP DP  RH WIND       PRES   REMARKS
WALHALLA         N/A    -17 -17 100 S3        30.48F
LANGDON        FAIR     -18 -24  76 S6        30.38F WCI -33
CAVALIER         N/A    -15 -20  76 W6        30.49F WCI -29
GRAFTON        FAIR     -11 -15  84 W3        30.53S
CANDO          FAIR     -17 -20  83 CALM      30.41F
FORT TOTTEN      N/A    -19 -25  73 E2        29.95S
ROLLA            N/A    -20 -26  76 SW7       30.34F WCI -37
RUGBY            N/A    -20 -27  69 SE6       30.37F WCI -36
 ***** THE ABOVE OBSERVATIONS ARE NON NWS ARE NOT QUALITY
        CONTROLLED AND MAY MIS-REPORT RAIN FOR SNOW...
$$

 *****  OTHER OBSERVATIONS SOUTHEAST NORTH DAKOTA *****

CITY           SKY/WX    TMP DP  RH WIND       PRES   REMARKS
COOPERSTOWN    FAIR     -18 -24  76 CALM      30.43F
VALLEY CITY    PTSUNNY  -15 -18  84 CALM      30.44F
OAKES          NOT AVBL
GWINNER        FAIR      -6  -9  84 NE6       30.44F WCI -18
SHEYENNE NWR     N/A    -10 -17  70 CALM      29.95S
BUFFALO          N/A    -11 -17  75 N2          N/A
WYNDMERE         N/A     -8 -13  77 NW2         N/A
 ***** THE ABOVE OBSERVATIONS ARE NON NWS ARE NOT QUALITY
       CONTROLLED AND MAY MIS-REPORT RAIN FOR SNOW...
$$

  *****  WEATHER ACROSS NORTHERN MINNESOTA  *****

CITY           SKY/WX    TMP DP  RH WIND       PRES   REMARKS
FLAG ISLAND    CLOUDY    -8 -11  84 NW7       30.43F WCI -22
WARROAD        CLOUDY   -13 -18  77 CALM      30.44F
ROSEAU         PTCLDY   -11 -17  77 W3        30.45F
HALLOCK        CLOUDY   -13 -18  77 CALM      30.49F
THF RVR FALLS    N/A     -6  -9  84 MISG        N/A
HALSTAD          N/A    -10 -15  81 W2          N/A
FOSSTON        CLOUDY   -17 -20  83 CALM      30.45F
BAUDETTE       CLOUDY   -12 -17  78 CALM      30.42F
WASKISH        CLOUDY    -6  -9  84 NW5       30.43F WCI -17
CROOKSTON      CLOUDY    -2  -8  78 CALM      30.51F
$$
  *****  WEATHER ACROSS CENTRAL AND WEST MINNESOTA  *****

CITY           SKY/WX    TMP DP  RH WIND       PRES   REMARKS
BEMIDJI        CLOUDY   -11 -15  82 W5        30.42S WCI -23
PARK RAPIDS    CLOUDY   -16 -24  67 CALM      30.43S
WADENA         CLOUDY    -8 -11  84 CALM      30.44S
DETROIT LAKES  CLOUDY   -11 -15  84 CALM      30.44F
MOORHEAD       CLOUDY    -8 -13  77 SE3       30.50F
FERGUS FALLS   CLOUDY    -9 -15  77 CALM      30.53F
ELBOW LAKE     CLOUDY    -8 -12  84 NW3       30.46F
MORRIS MN      CLOUDY    -6 -11  77 N5        30.46F WCI -17
STAPLES        NOT AVBL
WHEATON        CLOUDY    -6  -9  84 N3        30.49F
$$
  *****  WEATHER ELSEWHERE ACROSS MINNESOTA  *****

CITY           SKY/WX    TMP DP  RH WIND       PRES   REMARKS
DULUTH         FLURRIES   2  -3  80 N6        30.39F WCI  -9
INTRNTL FALLS  CLOUDY   -10 -14  82 CALM      30.42S
ELY            CLEAR     -9 -13  84 CALM      30.39S
CLOQUET        CLOUDY     1  -8  66 NW6       30.42R WCI -10
BRAINERD       CLOUDY     2  -4  76 N3        30.44S
HIBBING        CLOUDY    -8 -12  83 CALM      30.41S
ALEXANDRIA     CLOUDY    -6 -10  83 W5        30.45S WCI -17
SAINT CLOUD    CLEAR     -1  -6  79 W5        30.49S WCI -11
MINNEAPOLIS    PTCLDY     4  -1  80 W6        30.51R WCI  -7
$$

  *****  WEATHER ACROSS SOUTH DAKOTA  *****

CITY           SKY/WX    TMP DP  RH WIND       PRES   REMARKS
SIOUX FALLS    LGT SNOW  10   7  87 E10       30.38F FOG     WCI  -4
BROOKINGS      FLURRIES   4   0  83 E9        30.37F WCI -10
WATERTOWN      CLOUDY     1  -3  83 CALM      30.37F
HURON          LGT SNOW   3   0  87 NE5       30.39F FOG     WCI  -6
SISSETON         N/A     -6 -12  75 N5        30.47F WCI -17
ABERDEEN       CLOUDY    -5 -13  68 E10       30.42F WCI -23
MITCHELL       LGT SNOW   8   5  87 NE9       30.38F FOG     WCI  -5
PIERRE         FLURRIES   0  -5  79 E12       30.29F WCI -17
MOBRIDGE       CLOUDY    -4 -11  72 E13       30.29F WCI -23
RAPID CITY     CLOUDY     1  -3  83 SE8       30.05F WCI -13
$$

  *****  SOME WEATHER IN NEARBY STATES *****

CITY           SKY/WX    TMP DP  RH WIND       PRES   REMARKS
GLASGOW MT     CLOUDY    -3  -8  79 E17       30.05F WCI -24
GREAT FALLS MT CLOUDY    -1  -5  82 CALM      29.79F
CHEYENNE WY    CLOUDY    43  20  39 W14G23    29.90F
SCOTTSBLUFF NE CLOUDY    15  10  80 E9        29.95S WCI   3
OMAHA NE       LGT SNOW  22  16  78 SE3       30.42R
DES MOINES IA  CLOUDY    23  13  65 SE6       30.47F WCI  16
DAVENPORT IA   CLOUDY    20  14  77 SW6       30.52F WCI  12
CHICAGO IL     MOCLDY    18  12  77 W8        30.50S WCI   8
EAU CLAIRE WI  CLOUDY    10   3  73 W8        30.47R WCI  -2
LA CROSSE WI   CLEAR     10   4  76 W6        30.52R WCI   0
$$

  *****  SOME NATIONAL WEATHER *****

CITY           SKY/WX    TMP DP  RH WIND       PRES   REMARKS
LA GUARDIA NY  PTCLDY    32  16  51 W12       30.39R WCI  23
RALEIGH NC     CLEAR     21  16  81 CALM      30.55R
ATLANTA GA     CLEAR     27  19  72 CALM      30.50S
NEW ORLEANS LA CLEAR     40  29  64 E12       30.53R
OKLAHOMA CITY  MOCLDY    35  21  56 S14       30.36F
ALBUQUERQUE NM CLOUDY    28  24  85 NW3       30.26S
SALT LAKE CITY CLOUDY    48  29  47 CALM      29.96R
LOS ANGELES CA MOCLDY    56  54  93 NE5       30.16S FOG
BOISE ID       CLOUDY    34  33  96 E7        29.83F FOG
SEATTLE WA     MOCLDY    39  37  92 S14       29.84R
$$

*** WEATHER ACROSS MANITOBA...SASKATCHEWAN AND ONTARIO ***
                ***ONTARIO***

CITY           SKY/WX    TMP DP  RH WIND       PRES   REMARKS
GERALDTON      MOCLDY    -9 -13  84 W3        30.30R
THUNDER BAY    PTCLDY     5   0  78 W7        30.41S WCI  -7
SIOUX LOOKOUT  FLURRIES  -6 -11  77 N3        30.35F
TORONTO        FLURRIES  23  16  74 VRB2      30.33S
BIG TROUT LK   FLURRIES  -9 -15  77 W8        30.35S WCI -26
PICKLE LAKE    FLURRIES  -8 -11  84 W6        30.32F WCI -21
DRYDEN         CLEAR    -11 -17  77 W7        30.36F WCI -26
KENORA         LGT SNOW  -6  -9  84 NW7       30.39S FOG     WCI -20
$$
                *** MANITOBA***

CITY           SKY/WX    TMP DP  RH WIND       PRES   REMARKS
BRANDON        CLEAR    -22 -27  76 W6        30.38F WCI -38
DAUPHIN        CLEAR    -18 -24  76 CALM      30.41F
ISLAND LAKE    NOT AVBL
PILOT MOUND      N/A    -20 -26  76 S5          N/A  WCI -33
THE PAS        CLOUDY    -9 -15  77 S6        30.39F WCI -23
THOMPSON       FLURRIES  -4  -9  77 S5        30.36F WCI -15
WINNIPEG       PTCLDY   -15 -18  84 SW3       30.48F
LYNN LAKE      MOCLDY    -8 -11  84 SW3       30.23F
CHURCHILL      PTCLDY   -13 -18  77 W10       30.29F WCI -32
GILLAM         FLURRIES -13 -18  77 SW6       30.36F WCI -27
$$
                ***SASKATCHEWAN***

CITY           SKY/WX    TMP DP  RH WIND       PRES   REMARKS
ESTEVAN        PTCLDY   -22 -27  76 E6        30.27F WCI -38
KINDERSLEY     CLOUDY    -6  -9  84 E10       30.07F WCI -23
LLOYDMINSTER   MOCLDY   -20 -26  76 E5        30.13F WCI -33
PRINCE ALBERT  CRYSTALS -24 -29  76 CALM      30.32F
REGINA         PTCLDY   -17 -22  76 SE10      30.25F WCI -37
YORKTON        CLEAR    -18 -24  76 S3        30.31F   C1F1C2F2C3F3C4F4C5F5C6F6C7F7C8F8C9F9CaFaCbFbCcFcCdFdCe!



USA.gov is the U.S. government's official web portal to all federal, state and local government web resources and services.